www.pogodaiklimat.ru
Время
(UTC), дата
19 14.11
20 14.11
21 14.11
22 14.11
23 14.11
00 15.11
01 15.11
02 15.11
03 15.11
04 15.11
05 15.11
06 15.11
07 15.11
08 15.11
09 15.11
10 15.11
11 15.11
12 15.11
13 15.11
14 15.11
15 15.11
16 15.11
17 15.11
18 15.11
19 15.11
20 15.11
21 15.11
22 15.11
23 15.11
00 16.11
01 16.11
02 16.11
03 16.11
04 16.11
05 16.11
06 16.11
07 16.11
08 16.11
09 16.11
10 16.11
11 16.11
12 16.11
13 16.11
14 16.11
15 16.11
16 16.11
17 16.11
18 16.11
19 16.11
20 16.11
21 16.11
22 16.11
23 16.11
00 17.11
01 17.11
02 17.11
03 17.11
04 17.11
05 17.11
06 17.11
07 17.11
08 17.11
09 17.11
10 17.11
11 17.11
12 17.11
13 17.11
14 17.11
15 17.11
16 17.11
17 17.11
18 17.11
19 17.11
20 17.11
21 17.11
22 17.11
23 17.11
00 18.11
01 18.11
02 18.11
03 18.11
04 18.11
05 18.11
06 18.11
07 18.11
08 18.11
09 18.11
10 18.11
11 18.11
12 18.11
13 18.11
14 18.11
15 18.11
16 18.11
17 18.11
18 18.11
19 18.11
20 18.11
21 18.11
22 18.11
23 18.11
00 19.11
01 19.11
02 19.11
03 19.11
04 19.11
05 19.11
06 19.11
07 19.11
08 19.11
09 19.11
10 19.11
11 19.11
12 19.11
13 19.11
14 19.11
15 19.11
16 19.11
17 19.11
18 19.11
19 19.11
20 19.11
21 19.11
22 19.11
23 19.11
00 20.11
01 20.11
02 20.11
03 20.11
04 20.11
05 20.11
06 20.11
07 20.11
08 20.11
09 20.11
10 20.11
11 20.11
12 20.11
13 20.11
14 20.11
15 20.11
16 20.11
17 20.11
18 20.11
19 20.11
20 20.11
21 20.11
22 20.11
23 20.11
00 21.11
01 21.11
02 21.11
03 21.11
04 21.11
05 21.11
06 21.11
07 21.11
08 21.11
09 21.11
10 21.11
11 21.11
12 21.11
13 21.11
14 21.11
15 21.11
17 21.11
18 21.11
19 21.11
20 21.11
Ветер
(напр.,м/с)
Видим. Явления Облачность Т
(С)
Тd
(С)
f
(%)
Тe
(С)
Тes
(С)
Комфортность P
(гПа)
Po
(гПа)
Тmin
(С)
Tmax
(С)
R
(мм)
R24
(мм)
S
(см)
В 4 25 км 9/9 930 м
[Sc]
+3.8 -0.6 73 -1 -1 по сезону 1009.3 980.9
В 5 25 км 3/3 900 м
[Sc]
+3.1 -1.1 74 -2 -2 тепло 1008.5 980.1
В 5 25 км 5/5 870 м
[Sc]
+2.1 -1.2 79 -3 -3 холодно 1008.3 979.8
В 5 25 км 9/9 800 м
[Sc]
+3.5 -0.1 77 -2 -2 по сезону 1007.9 979.5
В 5 18 км 10/9 720 м
[Sc]
+3.5 +0.7 82 -2 -2 по сезону 1007.3 979.0
В 5 13 км 10/9 600 м
[Sc]
+3.0 +0.9 86 -2 -2 прохладно 1007.2 978.8
В 5 9000 м 9/6 800 м
[Sc Ci sp]
+2.5 +0.7 88 -3 -3 по сезону 1006.7 978.3
В 5 7000 м дымка 6/1 800 м
[Sc Ci fib]
+2.3 +1.0 91 -3 -3 по сезону 1006.2 977.8
В 6 7000 м дымка 9/9 240 м
[Sc]
+2.8 +1.5 91 -3 -3 прохладно 1005.9 977.5
В 5 13 км 9/9 750 м
[Sc]
+3.8 +2.0 88 -1 -1 по сезону 1005.5 977.2
В 6 15 км 9/9 750 м
[Sc]
+4.3 +2.2 86 -1 -1 тепло 1005.2 977.0
С 3 15 км 9/6 600 м
[Sc Ac As Ci sp]
+3.8 +2.1 89 -0 -0 по сезону 1004.6 976.4 +2.0 +4.5
СВ 3 25 км 10/9 630 м
[Sc]
+4.7 +2.8 87 +1 +1 по сезону 1004.4 976.3
ЮВ 7 30 км 10/9 630 м
[Sc]
+8.4 +4.2 75 +4 +4 тепло 1003.8 976.1
В 7 35 км 9/9 600 м
[Sc]
+8.7 +4.5 75 +5 +5 по сезону 1003.3 975.6
В 7 30 км 9/6 660 м
[Cu med, cong Ci sp]
+9.7 +4.9 72 +6 +6 тепло 1002.8 975.2
ЮВ 7 30 км 9/6 600 м
[Cu Sc Ci sp]
+10.3 +5.1 70 +7 +7 тепло 1002.4 974.9
ЮВ 7 30 км 9/6 600 м
[Cu Sc Ci sp]
+11.4 +5.5 67 +8 +9 тепло 1002.3 974.9
ЮВ 4 30 км 9/9 800 м
[Cu med, cong]
+11.3 +5.8 69 +9 +9 тепло 1002.7 975.3
В 3 30 км 9/9 870 м
[Sc]
+11.0 +5.8 70 +9 +9 тепло 1003.0 975.5
ЮВ 4 28 км 10/9 900 м
[Sc]
+10.8 +5.9 72 +8 +8 тепло 1003.9 976.4
В 4 28 км 9/4 900 м
[Sc Ac As]
+10.1 +5.8 75 +8 +8 тепло 1004.1 976.5
ЮВ 5 30 км 10/9 930 м
[Sc]
+10.3 +5.8 74 +7 +7 тепло 1004.6 977.0
ЮВ 4 28 км 9/4 600 м
[Sc Cs]
+9.6 +5.5 76 +7 +7 тепло 1004.2 976.6 +3.8 +11.6
ЮВ 6 28 км 9/0
[Cs]
+9.5 +5.4 76 +6 +6 тепло 1004.3 976.7
ЮВ 7 30 км 10/0
[Cs]
+9.5 +5.5 76 +6 +6 тепло 1003.8 976.2
ЮВ 8 30 км 10/0
[Ac trans Cs]
+9.8 +5.6 75 +6 +6 тепло 1004.0 976.4
ЮВ 6 25 км 9/0
[Cs]
+9.5 +5.6 77 +6 +6 тепло 1003.6 976.0
ЮВ 7 25 км 8/0
[Cs]
+9.8 +5.9 77 +6 +6 тепло 1004.0 976.4
Ю 6 25 км 10/0
[Ac trans Cs]
+9.9 +6.0 77 +6 +6 тепло 1003.4 975.8
ЮВ 5 22 км 10/0
[Ac und Cs]
+9.8 +6.1 78 +7 +7 тепло 1003.1 975.5
ЮВ 4 20 км 10/0
[Ac As]
+9.7 +6.1 78 +7 +7 тепло 1003.1 975.5
В 6 16 км 10/0
[Ac As]
+9.9 +6.2 78 +6 +6 тепло 1001.0 973.5
В 3 15 км 10/9 800 м
[Sc]
+9.9 +6.3 78 +8 +8 тепло 1002.4 974.9
Ю 6 18 км 10/9 870 м
[Sc]
+10.7 +6.5 75 +8 +8 тепло 1002.6 975.1
Ю 5 20 км 10/6 600 м
[Sc As op]
+10.3 +6.7 78 +7 +7 тепло 1003.3 975.8 +9.2 +10.9
Ю 4 18 км 10/6 1300 м
[Sc As trans]
+9.4 +6.4 82 +7 +7 тепло 1003.8 976.2
Ю 7 18 км 8/4 1230 м
[Sc As trans]
+10.7 +5.8 72 +7 +7 тепло 1004.8 977.3
Ю 8 20 км 5/5 1000 м
[Sc]
+11.1 +4.8 65 +8 +8 тепло 1005.5 978.0
З 5 25 км 8/8 1000 м
[Sc]
+8.0 +4.1 76 +4 +5 тепло 1007.5 979.6
З 5 30 км 5/5 750 м
[Sc]
+8.3 +3.6 72 +5 +5 тепло 1007.9 980.0
З 7 45 км 4/4 700 м
[Sc]
+8.8 +2.9 66 +5 +5 по сезону 1009.0 981.1
З 6 45 км 4/4 700 м
[Sc]
+7.8 +2.1 67 +4 +4 по сезону 1010.3 982.3
З 5 60 км 8/0
[Ac und Ci]
+7.7 +1.8 66 +4 +4 тепло 1011.1 983.1
ЮЗ 5 60 км 5/0
[Ac trans Ci sp]
+7.7 +1.4 64 +4 +4 по сезону 1011.2 983.2
ЮЗ 3 60 км 6/0
[Ac trans Ci sp]
+5.9 +1.4 73 +3 +3 по сезону 1012.2 984.0
Ю 2 60 км 8/0
[Ac trans Ci]
+6.4 +1.5 71 +4 +4 тепло 1013.6 985.4
Ю 3 60 км 9/0
[Ac und Ci sp]
+5.7 +1.3 73 +3 +3 по сезону 1014.3 986.0 +4.7 +11.1
Ю 2 40 км 10/0
[Ac As Cs]
+4.8 +1.7 80 +2 +2 по сезону 1014.2 985.8
Ю 2 35 км 9/0
[Ac trans Cs]
+4.5 +2.2 85 +2 +2 тепло 1015.2 986.7
Ю 2 30 км 9/0
[Ac trans Cs]
+4.6 +2.3 85 +2 +2 по сезону 1015.8 987.3
Ю 1 30 км 10/0
[Cs]
+4.1 +2.2 87 +3 +3 тепло 1015.9 987.4
В 1 30 км 10/0
[Ac und Cs]
+2.9 +1.3 89 +1 +1 тепло 1016.0 987.4
В 4 30 км 10/0
[Ac und Cs]
+3.4 +1.4 87 -1 -1 по сезону 1016.3 987.7
В 2 27 км 10/5 1140 м
[Sc Ac As Cs]
+3.3 +1.4 87 0 0 по сезону 1016.4 987.8
В 3 27 км 10/9 900 м
[Sc]
+3.8 +1.5 85 0 0 тепло 1016.0 987.4
В 3 25 км 10/9 540 м
[Sc]
+4.6 +2.1 84 +1 +1 по сезону 1015.1 986.7
ЮВ 1 30 км 10/9 660 м
[Sc]
+4.8 +2.4 84 +4 +4 тепло 1015.1 986.7
В 4 35 км 10/9 600 м
[Sc]
+6.1 +2.4 77 +2 +2 тепло 1013.8 985.5
В 4 25 км 10/9 1500 м
[Sc]
+6.1 +3.0 80 +2 +2 по сезону 1013.1 984.9 +1.9 +6.2
В 3 18 км слаб. дождь 10/9 1000 м
[Sc]
+6.0 +3.4 83 +3 +3 тепло 1013.0 984.8
СВ 3 15 км в посл. час дождь 10/9 570 м
[Sc]
+5.4 +3.9 90 +2 +2 тепло 1012.7 984.4
СВ 4 10 км {дождь} 10/9 600 м
[Sc]
+5.8 +4.2 89 +2 +2 по сезону 1011.5 983.3 0.3
СВ 3 15 км 10/9 700 м
[Sc]
+6.7 +5.1 90 +4 +4 тепло 1010.7 982.6
СВ 4 15 км 10/8 700 м
[Sc As op]
+7.7 +5.8 88 +4 +4 тепло 1009.6 981.6
СВ 4 15 км {дождь} 10/9 750 м
[Sc]
+8.3 +5.5 83 +5 +5 по сезону 1009.1 981.2
СВ 5 15 км 9/5 870 м
[Sc Ac As]
+9.1 +6.2 82 +6 +6 тепло 1008.2 980.4
СВ 5 15 км 9/0
[Ac trans Ci sp]
+9.6 +6.9 83 +6 +7 тепло 1007.4 979.7
СВ 3 12 км 8/0
[Ac trans Ci fib]
+8.7 +6.6 87 +6 +6 тепло 1007.1 979.3
СВ 4 10 км 5/0
[As op]
+7.5 +6.2 91 +4 +4 тепло 1006.7 978.8
СВ 5 10 км 5/0
[As op]
+7.3 +6.5 95 +3 +3 тепло 1006.2 978.3
В 5 15 км 4/0
[As op]
+9.1 +7.1 87 +6 +6 тепло 1005.3 977.6 +5.4 +9.7 0.3
ЮВ 7 40 км 4/0
[As trans Ci]
+12.1 +7.8 75 +9 +9 тепло 1004.5 977.1
ЮВ 7 40 км 9/0
[As op Ci]
+12.7 +8.0 73 +10 +10 тепло 1004.4 977.1
ЮВ 6 40 км 9/1 840 м
[Sc As op]
+12.9 +7.9 72 +11 +11 тепло 1004.1 976.8
ЮВ 5 40 км 9/9 800 м
[Sc]
+13.1 +7.8 70 +11 +11 тепло 1004.2 976.9
ЮВ 6 40 км 10/6 840 м
[Sc As op]
+13.1 +7.8 70 +11 +11 тепло 1004.1 976.8
ЮВ 5 40 км 10/9 600 м
[Sc]
+12.7 +7.8 72 +11 +11 тепло 1004.2 976.9
Ю 5 40 км 10/6 900 м
[Sc As op]
+12.7 +7.7 72 +11 +11 тепло 1003.8 976.5
Ю 7 40 км 10/0
[As op]
+12.7 +7.7 72 +10 +10 тепло 1003.7 976.4
Ю 7 40 км 10/9 750 м
[Sc]
+12.4 +7.5 72 +10 +10 тепло 1003.5 976.2
ЮВ 6 40 км 10/9 960 м
[Sc]
+12.2 +7.5 73 +10 +10 тепло 1003.5 976.2
ЮВ 9 30 км 9/5 900 м
[Sc As op]
+12.3 +7.4 72 +9 +9 тепло 1003.3 976.0
ЮВ 9 30 км 9/9 600 м
[Sc]
+12.1 +7.5 73 +9 +9 тепло 1003.8 976.4 +8.9 +13.3
ЮВ 6 25 км 8/3 1500 м
[Sc As op Ci sp]
+11.7 +7.5 75 +9 +9 тепло 1004.4 977.0
ЮВ 7 20 км 9/1 1500 м
[Sc As op]
+11.9 +7.6 75 +9 +9 тепло 1004.9 977.5
ЮВ 5 20 км 10/9 600 м
[Sc]
+12.1 +7.7 74 +10 +10 тепло 1005.1 977.7
З 4 2900 м слаб. дождь 10/9 210 м
[Frnb]
+8.1 +6.6 90 +5 +5 тепло 1006.4 978.6
СЗ 3 4500 м дождь 10/6 120 м
[Frnb As op]
+7.1 +6.4 95 +4 +4 тепло 1007.1 979.2
С 2 5000 м слаб. дождь 10/6 210 м
[Sc As op]
+7.4 +6.7 95 +5 +5 по сезону 1007.3 979.4 6
З 2 8000 м слаб. дождь {морось} 10/9 150 м
[St]
+7.6 +6.6 93 +5 +5 тепло 1007.8 979.9
З 2 9000 м в посл. час дождь 10/9 180 м
[St]
+7.9 +6.5 91 +6 +6 тепло 1008.5 980.6
СЗ 1 13 км {дождь, морось} 10/9 210 м
[St]
+7.7 +6.3 91 +7 +7 тепло 1009.0 981.1 0.3
ЮЗ 1 13 км 10/9 150 м
[Sc]
+7.3 +6.3 93 +6 +6 тепло 1010.3 982.3
Ю 4 35 км 4/4 930 м
[Sc]
+5.3 +2.5 82 +1 +1 тепло 1011.7 983.4
Ю 3 45 км {дождь} ясно +4.6 +1.2 79 +1 +1 по сезону 1012.2 983.8 +4.5 +12.2 6
Ю 4-4
{6}
45 км ясно +4.3 +1.1 80 0 0 по сезону 1012.8 984.4
Ю 5-7
{7}
45 км ясно +4.4 +1.2 80 -0 -0 тепло 1012.8 984.4
Ю 6 45 км 5/0
[Ci]
+4.5 +1.5 81 -1 -1 по сезону 1013.4 985.0
Ю 5-7
{8}
40 км ясно +4.2 +1.3 81 -1 -1 по сезону 1014.0 985.5
Ю 5 40 км 3/0
[Ci]
+4.3 +1.1 80 -1 -1 тепло 1014.7 986.2
ЮВ 6 40 км 9/0
[Ac und]
+5.1 +0.9 74 0 0 по сезону 1014.1 985.7
ЮВ 4 40 км 9/0
[Ac As]
+4.5 +0.6 76 0 0 тепло 1014.4 986.0
Ю 5 40 км 1/0
[Ci sp]
+4.2 0.0 74 -1 -1 тепло 1014.8 986.3
Ю 7 35 км 3/0
[Ci sp]
+4.5 -0.4 70 -1 -1 по сезону 1015.1 986.6
Ю 7 45 км 6/0
[Ci sp]
+4.6 -0.6 69 -1 -1 по сезону 1015.5 987.0
Ю 7 45 км 6/0
[Ci sp]
+4.7 -0.5 69 -1 -1 тепло 1015.6 987.1
Ю 5 45 км 4/0
[Ac trans Ci sp]
+3.6 -0.7 73 -1 -1 по сезону 1016.0 987.4 +3.6 +5.2
ЮЗ 2 50 км 5/0
[Ac trans Ci]
+4.6 -0.4 70 +2 +2 тепло 1016.6 988.1
Ю 4 50 км 8/0
[Ac trans Ci]
+5.1 -0.1 69 +1 +1 тепло 1017.6 989.1
Ю 4 50 км 9/0
[Ac und Ci sp]
+5.2 +0.2 70 +1 +2 по сезону 1017.9 989.4
Ю 4 50 км 8/0
[Ac trans Ci sp]
+6.6 +1.0 67 +3 +4 тепло 1018.1 989.8
Ю 3 50 км 6/0
[Ac trans Ci sp]
+7.1 +0.4 62 +5 +6 тепло 1018.1 989.8
Ю 2 50 км 6/1 1000 м
[Cu hum Ac trans Ci sp]
+8.3 +1.0 60 +7 +8 тепло 1017.9 989.7
СЗ 1 50 км 9/1 1000 м
[Cu hum Ac und Ci sp]
+8.1 +1.1 61 +8 +8 тепло 1017.4 989.2
С 1 50 км 9/0
[Ac As Ci sp]
+7.3 +1.6 67 +7 +7 тепло 1017.6 989.4
С 1 45 км 8/0
[Ac As Ci sp]
+6.5 +1.5 70 +6 +6 тепло 1017.9 989.6
С 2 40 км 10/0
[Ac und]
+6.2 +1.7 73 +4 +4 тепло 1018.4 990.0
СВ 2 40 км 10/0
[Ac As]
+5.8 +1.8 75 +4 +4 тепло 1018.6 990.2
СВ 2 35 км слаб. дождь 10/10 600 м
[Sc]
+5.6 +2.1 78 +3 +3 по сезону 1019.0 990.5 +3.1 +8.4 0.0
С 2 18 км слаб. дождь 10/3 500 м
[Sc As op]
+4.9 +2.9 87 +2 +2 тепло 1018.9 990.4
С 2 22 км слаб. дождь 10/0 1080 м
[As op]
+4.5 +3.3 92 +2 +2 тепло 1019.2 990.6
СВ 3 13 км слаб. дождь 10/0 960 м
[As op]
+4.6 +3.3 91 +1 +1 по сезону 1019.3 990.7 1
СВ 3 15 км слаб. дождь 10/0 900 м
[As op]
+4.5 +3.5 93 +1 +1 тепло 1019.2 990.6
СЗ 2 6000 м слаб. дождь 10/1 30 м
[Frnb As op]
+4.2 +3.7 97 +1 +1 тепло 1019.3 990.7
СЗ 3 4500 м слаб. дождь 10/8 <50 м
[Frnb As op]
+4.2 +3.7 97 0 0 по сезону 1019.1 990.5 2
С 2 4200 м слаб. дождь 10/8 30 м
[Frnb As op]
+4.2 +3.6 96 +1 +1 по сезону 1018.9 990.3
С 3 3300 м дождь 10/9 30 м
[Frnb]
+4.0 +3.5 97 0 0 тепло 1019.1 990.5
СЗ 3 3000 м дождь 10/9 30 м
[Frnb]
+3.8 +3.4 97 -0 -0 по сезону 1019.1 990.5 0.4
С 2 2300 м дождь 10/9 30 м
[Frnb]
+3.7 +3.2 97 +1 +1 по сезону 1019.2 990.6
С 2 2700 м дождь 10/9 30 м
[Frnb]
+3.8 +3.3 97 +1 +1 тепло 1018.9 990.3
СЗ 2 2500 м слаб. морось {дождь} 10/9 <50 м
[Frnb]
+3.8 +3.3 97 +1 +1 по сезону 1018.9 990.3 +3.7 +5.7 3
С 2 2500 м слаб. морось 10/10 60 м
[Frnb]
+3.8 +3.2 96 +1 +1 тепло 1019.0 990.4
СЗ 2 2500 м слаб. морось 10/10 60 м
[Frnb]
+3.8 +3.4 97 +1 +1 тепло 1019.0 990.4
С 1 3200 м слаб. морось 10/10 50 м
[Frnb]
+4.1 +3.6 97 +2 +2 по сезону 1019.1 990.5 0.1
С 1 7000 м слаб. морось 10/10 120 м
[Frnb]
+4.2 +3.2 93 +3 +3 тепло 1019.1 990.5
С 1 7000 м слаб. морось 10/10 120 м
[Frnb]
+4.3 +3.3 93 +3 +3 тепло 1018.6 990.0
С 1 4700 м слаб. морось 10/10 120 м
[Frnb]
+4.5 +3.7 95 +3 +3 по сезону 1018.1 989.6 0.1
С 2 3700 м слаб. морось 10/10 120 м
[Frnb]
+4.4 +3.8 96 +1 +1 по сезону 1017.5 989.0
С 2 4000 м слаб. морось 10/9 120 м
[Frnb]
+4.4 +3.8 96 +1 +1 по сезону 1017.7 989.2
С 2 7000 м слаб. морось 10/9 120 м
[Frnb]
+4.4 +3.7 95 +1 +1 по сезону 1017.3 988.8 0.1
СВ 2 4700 м в посл. час морось 10/9 90 м
[St]
+4.3 +3.7 96 +1 +1 по сезону 1017.2 988.7
СВ 3 600 м туман 10/10 30 м
[St]
+4.3 +4.0 98 0 0 тепло 1017.0 988.5
СВ 3 2600 м в посл. час туман 10/10 50 м
[St]
+4.4 +4.1 98 +1 +1 по сезону 1016.8 988.3 +3.7 +4.5 0.3
СВ 2 1200 м дымка 10/10 <50 м
[St]
+4.4 +4.0 97 +1 +1 по сезону 1016.5 988.0
СВ 2-4
{4}
300 м туман ?/? +4.5 +4.2 98 +2 +2 тепло 1016.4 987.9
СВ 2 300 м туман ?/? +4.7 +4.4 98 +2 +2 по сезону 1015.9 987.5
С 1-2
{3}
300 м туман ?/? +4.7 +4.4 98 +3 +3 тепло 1015.5 987.1
СВ 1-2
{2}
200 м туман ?/? +4.8 +4.5 98 +3 +3 тепло 1015.3 986.9
СВ 2 100 м туман ?/? +4.8 +4.6 99 +2 +2 по сезону 1014.9 986.5 0.0
СВ 2-3
{4}
100 м туман ?/? +4.9 +4.6 98 +2 +2 тепло 1014.5 986.1
СВ 2-2
{3}
200 м туман ?/? +5.0 +4.8 99 +2 +2 тепло 1013.7 985.4
СВ 3 1600 м в посл. час туман 10/9 <50 м
[St]
+5.1 +4.7 97 +1 +1 по сезону 1013.3 985.0 0.0
В 3 2700 м дымка 10/9 60 м
[St]
+5.1 +4.6 97 +1 +1 тепло 1012.9 984.6
СВ 2 2800 м слаб. морось 10/9 60 м
[Frnb]
+5.2 +4.6 96 +2 +2 тепло 1012.7 984.4
В 2 2400 м слаб. морось {туман} 10/9 50 м
[St]
+5.3 +4.7 96 +3 +3 по сезону 1012.4 984.1 +4.4 +5.3 0.0
В 1 1400 м в посл. час морось 10/10 90 м
[Sc]
+5.4 +4.9 97 +4 +4 тепло 1012.2 983.9
СВ 2 2000 м дымка 10/9 90 м
[Sc]
+5.9 +5.2 95 +3 +3 тепло 1011.9 983.7
В 3 3000 м дымка 10/9 100 м
[Sc]
+6.3 +5.4 94 +3 +3 по сезону 1011.7 983.5 0.0
В 1 3500 м слаб. дождь 9/8 600 м
[Sc As op]
+7.6 +6.3 91 +7 +7 тепло 1011.4 983.4
В 1 6000 м в посл. час дождь 10/8 480 м
[Sc As op]
+8.8 +7.0 88 +8 +8 тепло 1010.7 982.8
В 4 6000 м дымка {дождь} 10/10 120 м
[Sc]
+8.8 +7.6 92 +6 +6 по сезону 1010.1 982.2 0.0
СВ 2 6000 м дымка 10/10 420 м
[Sc]
+9.0 +7.8 92 +7 +7 тепло 1009.5 981.7
В 2 6000 м дымка 10/10 180 м
[Sc]
+9.1 +7.7 91 +7 +7 тепло 1009.4 981.6
СВ 3 2500 м слаб. дождь 10/10 180 м
[Sc]
+8.4 +7.5 94 +6 +6 тепло 1009.4 981.5 0.0
В 3 2500 м в посл. час дождь 10/9 630 м
[Sc]
+8.4 +7.4 93 +6 +6 тепло 1009.0 981.1
В 4 2800 м слаб. дождь 10/10 300 м
[Sc]
+8.3 +7.4 94 +5 +5 тепло 1008.8 980.9 +5.2 +9.2 0.0
В 2 3000 м в посл. час дождь 10/10 600 м
[Sc]
+8.3 +7.5 95 +6 +6 тепло 1008.8 980.9
ЮВ 2 3500 м дымка 10/9 150 м
[Sc]
+8.6 +7.8 95 +7 +7 тепло 1008.8 981.0
Местоположение метеостанции Дрезден (Германия): широта 51.13 долгота 13.78 высота над уровнем моря 226 м.
В архиве по умолчанию представлена погода в Дрездене за последнюю неделю. Архивные данные за месяц целиком и за предыдущие месяцы, начиная с января 2011 года, Вы можете получить, выбрав интересующий диапазон дат из раскрывающегося списка и нажав кнопку "Найти!".
*Определитесь, кто Вы:
Внимание! Время в таблицах - всемирное. Для получения местного времени необходимо прибавить поправку, которая равна 1 ч.
Смотрите также архив погоды в соседних городах и на ближайших метеорологических станциях:
Партнеры нашего сайта:      
Пояснения к столбцам:
  • Ветер - указаны скорость ветра в м/с - средняя за 10 мин, порывы в срок и между сроками (в фигурных скобках) и направление, откуда дует ветер: С - северный,
  • СВ - северо-восточный, В - восточный, ЮВ - юго-восточный, Ю - южный, ЮЗ - юго-западный, З - западный, СЗ - северо-западный.
  • Видимость - горизонтальная дальность видимости в метрах или километрах. При видимости от 1 до 10 км при отсутствии осадков обычно наблюдается дымка, при ухудшении видимости до 1 км и менее - туман. В сухую погоду видимость может ухудшаться дымом, пылью или мглою.
  • Явления - указаны атмосферные явления, наблюдавшиеся в срок или в последний час перед сроком; фигурными скобками обозначены явления, наблюдавшиеся между сроками (за 1-3 часа до срока); квадратными скобками обозначены град или гололедные отложения с указанием их диаметра в мм.
  • Облачность - указаны через наклонную черту общая и нижняя облачность в баллах и высота нижней границы облаков в метрах; квадратными скобками обозначены формы облаков: Ci - перистые, Cs - перисто-слоистые, Cc - перисто-кучевые, Ac - высококучевые, As - высокослоистые, Sc - слоисто-кучевые, Ns - слоисто-дождевые, Cu - кучевые, Cb - кучево-дождевые. Подробнее классификацию облаков см. в Атласе облаков (PDF).
  • T - Температура воздуха - температура, измеренная на высоте 2 м над землей.
  • Td - Температура точки росы - температура, при понижении до которой содержащийся в воздухе водяной пар достигнет насыщения.
  • f - Относительная влажность воздуха - влажноcть воздуха, измеренная на высоте 2 м над землей.
  • Te - Эффективная температура - температура, которую ощущает одетый по сезону человек в тени. Характеристика душности погоды. При расчете учитывается влияние влажности воздуха и скорости ветра на теплоощущения человека.
  • Tes - Эффективная температура на солнце - температура, которую ощущает человек, с поправкой на солнечный нагрев. Характеристика знойности погоды. Зависит от высоты солнца над горизонтом, облачности и скорости ветра. Ночью, в пасмурную погоду, а также при ветре 12 м/с и более поправка равна нулю.
  • P - Атмосферное давление - приведенное к уровню моря атмосферное давление.
  • Po - Атмосферное давление - измеренное на уровне метеостанции атмосферное давление.
  • Tmin - Минимальная температура - минимум температуры воздуха на высоте 2 м над землей.
  • Tmax - Максимальная температура - максимум температуры воздуха на высоте 2 м над землей.
  • R - Количество осадков - Количество выпавших осадков за период времени, мм. При наведении курсора мыши на число - период времени, за который выпало указанное количество осадков.
  • R24 - Количество осадков - Количество выпавших осадков за 24 часа, мм.
  • S - Снежный покров - Высота снежного покрова, см. При наведении курсора мыши на число - состояние снежного покрова и степень покрытия местности в баллах.